| time (UTC) | temp C | wind direction | speed KPH | gust KPH | rain 1hr cm | rain 24hr cm | rain mn cm | humidity % | barometer mb |
| 20260505041010 | 10 | 0 | 0.0 | 0.0 | 0.00 | 0.64 | 0.64 | 100 | 1016.0 |
| 20260505040009 | 10 | 0 | 0.0 | 0.0 | 0.00 | 0.64 | 0.64 | 100 | 1016.0 |
| 20260505035009 | 10 | 0 | 0.0 | 0.0 | 0.00 | 0.64 | 0.64 | 100 | 1015.9 |
| 20260505034010 | 10 | 0 | 0.0 | 0.0 | 0.00 | 0.64 | 0.64 | 100 | 1015.7 |
| 20260505033009 | 10 | 0 | 0.0 | 0.0 | 0.00 | 0.64 | 0.64 | 100 | 1015.6 |
| 20260505031010 | 10 | 0 | 0.0 | 0.0 | 0.33 | 0.64 | 0.64 | 99 | 1015.6 |
| 20260505030009 | 11 | 0 | 0.0 | 0.0 | 0.33 | 0.64 | 0.64 | 100 | 1015.5 |
| 20260505025010 | 11 | 0 | 0.0 | 0.0 | 0.33 | 0.64 | 0.64 | 100 | 1015.6 |
| 20260505024011 | 11 | 0 | 0.0 | 0.0 | 0.33 | 0.64 | 0.64 | 100 | 1015.5 |
| 20260505022046 | 11 | 1 | 0.0 | 0.0 | 0.33 | 0.64 | 0.64 | 98 | 1015.8 |
| 20260505021012 | 11 | 1 | 0.0 | 0.0 | 0.00 | 0.30 | 0.30 | 97 | 1015.7 |
| 20260505020012 | 11 | 1 | 0.0 | 0.0 | 0.00 | 0.30 | 0.30 | 96 | 1015.7 |
| 20260505015011 | 11 | 1 | 0.0 | 0.0 | 0.00 | 0.30 | 0.30 | 95 | 1015.8 |
| 20260505013009 | 11 | 1 | 0.0 | 0.0 | 0.00 | 0.30 | 0.30 | 92 | 1015.9 |
| 20260505012011 | 11 | 357 | 1.6 | 4.8 | 0.00 | 0.30 | 0.30 | 91 | 1016.1 |
| 20260505011017 | 11 | 328 | 0.0 | 0.0 | 0.00 | 0.30 | 0.30 | 91 | 1016.1 |
| 20260505010014 | 11 | 328 | 0.0 | 0.0 | 0.00 | 0.30 | 0.30 | 91 | 1016.1 |
| 20260505005011 | 11 | 328 | 0.0 | 0.0 | 0.00 | 0.30 | 0.30 | 90 | 1016.1 |
| 20260505004014 | 11 | 328 | 0.0 | 0.0 | 0.00 | 0.30 | 0.30 | 91 | 1016.1 |
| 20260505002010 | 11 | 328 | 0.0 | 0.0 | 0.00 | 0.30 | 0.30 | 91 | 1016.2 |
| 20260505001014 | 11 | 328 | 0.0 | 0.0 | 0.00 | 0.30 | 0.30 | 91 | 1016.2 |
| 20260504235011 | 11 | 342 | 0.0 | 0.0 | 0.00 | 0.30 | 0.30 | 95 | 1016.2 |
| 20260504234010 | 11 | 342 | 0.0 | 0.0 | 0.00 | 0.30 | 0.30 | 96 | 1016.3 |
| 20260504233012 | 11 | 342 | 0.0 | 0.0 | 0.00 | 0.30 | 0.30 | 99 | 1016.4 |
| 20260504232010 | 11 | 342 | 0.0 | 0.0 | 0.00 | 0.30 | 0.30 | 100 | 1016.7 |
| 20260504231011 | 11 | 342 | 0.0 | 0.0 | 0.00 | 0.30 | 0.30 | 100 | 1016.7 |
| 20260504230011 | 11 | 342 | 0.0 | 0.0 | 0.00 | 0.30 | 0.30 | 100 | 1016.7 |
| 20260504225011 | 10 | 342 | 0.0 | 0.0 | 0.00 | 0.30 | 0.30 | 100 | 1016.7 |
| 20260504224011 | 10 | 342 | 0.0 | 0.0 | 0.00 | 0.30 | 0.30 | 100 | 1016.8 |
| 20260504223011 | 10 | 342 | 0.0 | 0.0 | 0.00 | 0.30 | 0.30 | 100 | 1016.9 |
| 20260504222010 | 10 | 342 | 0.0 | 0.0 | 0.00 | 0.30 | 0.30 | 100 | 1017.0 |
| 20260504221012 | 10 | 342 | 0.0 | 0.0 | 0.00 | 0.30 | 0.30 | 100 | 1017.0 |
| 20260504220021 | 10 | 342 | 0.0 | 0.0 | 0.00 | 0.30 | 0.30 | 100 | 1017.0 |
| 20260504215011 | 10 | 342 | 0.0 | 0.0 | 0.00 | 0.30 | 0.30 | 100 | 1017.1 |
| 20260504214011 | 10 | 342 | 0.0 | 0.0 | 0.00 | 0.30 | 0.30 | 100 | 1017.1 |
| 20260504213011 | 10 | 342 | 0.0 | 0.0 | 0.00 | 0.30 | 0.30 | 100 | 1017.1 |
| 20260504212011 | 10 | 342 | 0.0 | 0.0 | 0.00 | 0.30 | 0.30 | 100 | 1017.1 |
| 20260504211010 | 10 | 342 | 0.0 | 0.0 | 0.00 | 0.30 | 0.30 | 100 | 1017.2 |
| 20260504210010 | 10 | 342 | 0.0 | 0.0 | 0.00 | 0.30 | 0.30 | 100 | 1017.2 |
| 20260504204011 | 10 | 342 | 0.0 | 0.0 | 0.00 | 0.30 | 0.30 | 100 | 1017.0 |
| 20260504203010 | 10 | 342 | 0.0 | 0.0 | 0.00 | 0.30 | 0.30 | 100 | 1016.9 |
| 20260504202010 | 10 | 342 | 0.0 | 0.0 | 0.00 | 0.30 | 0.30 | 100 | 1016.9 |
| 20260504201011 | 10 | 342 | 0.0 | 0.0 | 0.00 | 0.30 | 0.30 | 100 | 1017.0 |
| 20260504200012 | 10 | 342 | 0.0 | 0.0 | 0.00 | 0.30 | 0.30 | 100 | 1017.0 |
| 20260504195009 | 10 | 342 | 0.0 | 12.9 | 0.00 | 0.30 | 0.30 | 100 | 1017.0 |
| 20260504194010 | 10 | 0 | 0.0 | 11.3 | 0.00 | 0.30 | 0.30 | 100 | 1016.9 |
| 20260504193010 | 11 | 256 | 0.0 | 4.8 | 0.00 | 0.30 | 0.30 | 100 | 1016.9 |
| 20260504192010 | 11 | 318 | 0.0 | 0.0 | 0.00 | 0.30 | 0.30 | 100 | 1016.8 |
| 20260504191011 | 10 | 318 | 0.0 | 11.3 | 0.00 | 0.30 | 0.30 | 100 | 1016.6 |
| 20260504185010 | 10 | 271 | 0.0 | 4.8 | 0.00 | 0.30 | 0.30 | 100 | 1016.6 |
| 20260504184010 | 10 | 354 | 0.0 | 0.0 | 0.00 | 0.30 | 0.30 | 100 | 1016.6 |
| 20260504183010 | 10 | 354 | 0.0 | 0.0 | 0.00 | 0.30 | 0.30 | 100 | 1016.8 |
| 20260504182009 | 10 | 354 | 0.0 | 3.2 | 0.00 | 0.30 | 0.30 | 100 | 1016.9 |
| 20260504180009 | 11 | 345 | 0.0 | 8.0 | 0.00 | 0.30 | 0.30 | 100 | 1016.8 |
| 20260504174010 | 11 | 83 | 0.0 | 0.0 | 0.00 | 0.30 | 0.30 | 100 | 1016.4 |
| 20260504173010 | 10 | 83 | 0.0 | 0.0 | 0.00 | 0.30 | 0.30 | 100 | 1016.4 |
| 20260504172009 | 10 | 83 | 0.0 | 0.0 | 0.00 | 0.30 | 0.30 | 100 | 1016.2 |
| 20260504151010 | 8 | 83 | 0.0 | 0.0 | 0.05 | 0.30 | 0.30 | 100 | 1016.1 |
| 20260504141010 | 8 | 83 | 0.0 | 0.0 | 0.03 | 0.25 | 0.25 | 100 | 1016.0 |
| 20260504081010 | 10 | 302 | 0.0 | 8.0 | 0.00 | 0.00 | 0.00 | 100 | 1015.0 |